Weather History for Beaufort MCAS, SC

Change the Weather History Date:

Wednesday, January 9, 2013

  Actual Average Record
Temperature  
Mean Temperature 63 °F -  
Max Temperature 72 °F 57 °F 80 °F (1937)
Min Temperature 54 °F 38 °F 11 °F (1970)
Degree Days  
Heating Degree Days 2    
Growing Degree Days 13 (Base 50)    
Moisture  
Dew Point 56 °F    
Average Humidity 82    
Maximum Humidity 94    
Minimum Humidity 68    
Precipitation  
Precipitation 0.00 in - - ()
Sea Level Pressure  
Sea Level Pressure 30.36 in    
Wind  
Wind Speed 3 mph (ENE)    
Max Wind Speed 7 mph    
Max Gust Speed -    
Visibility 9 miles    
Events Fog , Rain    
Averages and records for this station are not official NWS values.
T = Trace of Precipitation, MM = Missing Value Source: NWS Daily Summary

Daily Weather History Graph

Daily Weather History Graph

Search for Another Location

Airport:

Trip Planner

Search our weather history database for the weather conditions in past years. The results will help you decide how hot, cold, wet, or windy it might be!

Date:

Astronomy

Jan. 09, 2013 Rise Set
Actual Time 7:25 AM EST 5:35 PM EST
Civil Twilight 6:58 AM EST 6:01 PM EST
Nautical Twilight 6:28 AM EST 6:32 PM EST
Astronomical Twilight 5:58 AM EST 7:02 PM EST
Moon 5:02 AM EST (1/9) 3:35 PM EST (1/9)
Length of Visible Light 11h 03m
Length of Day
10h 09m
Waning Crescent, 6% of the Moon is Illuminated
Jan 9
Waning Crescent
Jan 11
New
Jan 18
First Quarter
Jan 26
Full
Feb 3
Last Quarter

Hourly Weather History & Observations

Time (EST) Temp. Dew Point Humidity Pressure Visibility Wind Dir Wind Speed Gust Speed Precip Events Conditions
12:56 AM 54.0 °F 50.0 °F 86% 30.33 in 10.0 mi Calm Calm - N/A   Overcast
1:56 AM 55.0 °F 50.0 °F 83% 30.33 in 10.0 mi NE 3.5 mph - N/A   Overcast
2:56 AM 54.0 °F 50.0 °F 86% 30.32 in 10.0 mi NNE 5.8 mph - N/A   Partly Cloudy
3:56 AM 57.0 °F 50.0 °F 77% 30.31 in 10.0 mi NE 4.6 mph - N/A   Overcast
4:56 AM 55.9 °F 51.1 °F 84% 30.31 in 10.0 mi Calm Calm - 0.00 in   Overcast
5:56 AM 57.0 °F 52.0 °F 83% 30.32 in 10.0 mi NNE 4.6 mph - N/A   Overcast
6:56 AM 57.0 °F 52.0 °F 83% 30.33 in 10.0 mi ENE 4.6 mph - N/A   Mostly Cloudy
7:56 AM 57.9 °F 53.1 °F 84% 30.35 in 10.0 mi NE 4.6 mph - 0.00 in Rain Light Rain
8:56 AM 61.0 °F 55.0 °F 81% 30.38 in 10.0 mi NNE 3.5 mph - 0.00 in   Overcast
9:56 AM 63.0 °F 55.9 °F 78% 30.39 in 10.0 mi NE 4.6 mph - N/A   Mostly Cloudy
10:56 AM 64.0 °F 57.9 °F 80% 30.39 in 10.0 mi East 4.6 mph - N/A   Mostly Cloudy
11:56 AM 68.0 °F 60.1 °F 76% 30.37 in 10.0 mi ENE 5.8 mph - N/A   Mostly Cloudy
12:56 PM 70.0 °F 61.0 °F 73% 30.35 in 10.0 mi ESE 5.8 mph - N/A   Mostly Cloudy
1:30 PM 71.6 °F 62.6 °F 73% 30.35 in 10.0 mi ESE 3.5 mph - N/A   Overcast
1:56 PM 71.1 °F 62.1 °F 73% 30.34 in 10.0 mi SE 3.5 mph - N/A   Mostly Cloudy
2:56 PM 72.0 °F 61.0 °F 68% 30.34 in 10.0 mi East 3.5 mph - N/A   Mostly Cloudy
3:56 PM 72.0 °F 61.0 °F 68% 30.35 in 10.0 mi Calm Calm - N/A   Mostly Cloudy
4:56 PM 69.1 °F 61.0 °F 75% 30.36 in 10.0 mi SE 3.5 mph - N/A   Clear
5:14 PM 66.2 °F 60.8 °F 83% 30.36 in 10.0 mi ESE 6.9 mph - N/A   Mostly Cloudy
5:56 PM 64.0 °F 57.9 °F 80% 30.37 in 10.0 mi SE 3.5 mph - N/A   Overcast
6:56 PM 60.1 °F 55.9 °F 86% 30.39 in 10.0 mi Calm Calm - N/A   Clear
7:56 PM 61.0 °F 55.9 °F 83% 30.39 in 10.0 mi Calm Calm - N/A   Clear
8:56 PM 62.1 °F 55.9 °F 80% 30.39 in 10.0 mi East 3.5 mph - N/A   Clear
9:56 PM 59.0 °F 55.0 °F 87% 30.39 in 10.0 mi South 3.5 mph - N/A   Clear
10:56 PM 55.9 °F 54.0 °F 93% 30.39 in 9.0 mi Calm Calm - N/A   Clear
11:15 PM 55.4 °F 53.6 °F 94% 30.39 in 1.0 mi Calm Calm - N/A   Clear
11:18 PM 55.4 °F 53.6 °F 94% 30.39 in 0.5 mi Calm Calm - N/A Fog Fog
11:38 PM 55.4 °F 53.6 °F 94% 30.39 in 2.0 mi Calm Calm - N/A   Partly Cloudy
11:46 PM 55.4 °F 53.6 °F 94% 30.39 in 7.0 mi Calm Calm - N/A   Clear
11:56 PM 55.9 °F 54.0 °F 93% 30.39 in 8.0 mi NNE 3.5 mph - N/A   Clear